EHC05 EHHA-EHLE

Flight info

Callsign EHC05
Flight time 0h 17m
Altitude 1000
Route DCT
Aircraft EC35/M-V/N

Departure

Time 2026-04-26 13:07
Airport Amsterdam Heliport (EHHA)

Arrival

Time 2026-04-26 13:25
Airport Lelystad Airport (EHLE)
Time Latitude Longitude Altitude Speed Heading
2026-04-26 12:48 52.41440 4.80423 8 ft 0 kts 283°
2026-04-26 13:07 52.41430 4.80472 27 ft 2 kts 24°
2026-04-26 13:07 52.41531 4.80532 109 ft 43 kts 13°
2026-04-26 13:07 52.41868 4.80701 501 ft 59 kts 25°
2026-04-26 13:07 52.42079 4.81372 813 ft 77 kts 75°
2026-04-26 13:08 52.42154 4.82233 919 ft 76 kts 65°
2026-04-26 13:08 52.42346 4.83147 810 ft 97 kts 58°
2026-04-26 13:08 52.42633 4.84283 766 ft 119 kts 62°
2026-04-26 13:08 52.42875 4.85683 767 ft 135 kts 69°
2026-04-26 13:09 52.43027 4.87246 776 ft 143 kts 75°
2026-04-26 13:09 52.43073 4.88879 778 ft 143 kts 82°
2026-04-26 13:09 52.43002 4.90516 780 ft 144 kts 89°
2026-04-26 13:09 52.42864 4.91793 790 ft 143 kts 93°
2026-04-26 13:10 52.42605 4.93322 786 ft 138 kts 100°
2026-04-26 13:10 52.42244 4.94798 777 ft 140 kts 106°
2026-04-26 13:10 52.41791 4.96188 778 ft 139 kts 112°
2026-04-26 13:10 52.41269 4.97441 775 ft 140 kts 118°
2026-04-26 13:11 52.41060 4.97873 774 ft 142 kts 120°
2026-04-26 13:11 52.40963 4.98062 770 ft 142 kts 121°
2026-04-26 13:11 52.40590 4.98742 896 ft 129 kts 125°
2026-04-26 13:11 52.39896 4.99807 827 ft 145 kts 131°
2026-04-26 13:12 52.39087 5.00809 809 ft 144 kts 137°
2026-04-26 13:12 52.38247 5.01636 792 ft 142 kts 143°
2026-04-26 13:12 52.37334 5.02332 778 ft 145 kts 150°
2026-04-26 13:12 52.36381 5.02894 778 ft 144 kts 152°
2026-04-26 13:13 52.35530 5.03730 779 ft 143 kts 130°
2026-04-26 13:13 52.34993 5.05035 778 ft 139 kts 104°
2026-04-26 13:13 52.34599 5.06519 772 ft 141 kts 107°
2026-04-26 13:13 52.34158 5.07928 777 ft 140 kts 110°
2026-04-26 13:14 52.33814 5.09387 773 ft 137 kts 89°
2026-04-26 13:14 52.34039 5.10856 774 ft 134 kts 52°
2026-04-26 13:14 52.34758 5.11757 776 ft 133 kts 15°
2026-04-26 13:14 52.35671 5.11720 771 ft 134 kts 338°
2026-04-26 13:15 52.36376 5.10752 773 ft 139 kts 302°
2026-04-26 13:15 52.36592 5.09205 774 ft 143 kts 264°
2026-04-26 13:15 52.36200 5.07709 772 ft 146 kts 226°
2026-04-26 13:15 52.35666 5.07045 774 ft 146 kts 202°
2026-04-26 13:16 52.34356 5.06978 776 ft 143 kts 152°
2026-04-26 13:16 52.33624 5.07984 773 ft 139 kts 116°
2026-04-26 13:16 52.33268 5.09449 774 ft 137 kts 93°
2026-04-26 13:16 52.33017 5.10965 779 ft 141 kts 105°
2026-04-26 13:17 52.32421 5.13990 778 ft 139 kts 94°
2026-04-26 13:17 52.32261 5.15523 773 ft 138 kts 88°
2026-04-26 13:18 52.32205 5.18659 769 ft 137 kts 78°
2026-04-26 13:18 52.32301 5.20095 767 ft 137 kts 73°
2026-04-26 13:18 52.32753 5.23103 773 ft 135 kts 63°
2026-04-26 13:19 52.33105 5.24546 772 ft 136 kts 58°
2026-04-26 13:19 52.33529 5.25913 771 ft 136 kts 53°
2026-04-26 13:19 52.33849 5.26778 759 ft 135 kts 50°
2026-04-26 13:19 52.34371 5.28034 765 ft 136 kts 51°
2026-04-26 13:20 52.34731 5.29485 771 ft 138 kts 65°
2026-04-26 13:20 52.34997 5.30991 773 ft 136 kts 63°
2026-04-26 13:20 52.35342 5.32423 772 ft 137 kts 57°
2026-04-26 13:20 52.35774 5.33809 778 ft 137 kts 52°
2026-04-26 13:21 52.36290 5.35121 777 ft 136 kts 47°
2026-04-26 13:21 52.36675 5.35936 781 ft 136 kts 43°
2026-04-26 13:21 52.37426 5.37575 783 ft 134 kts 44°
2026-04-26 13:21 52.38057 5.38703 778 ft 135 kts 40°
2026-04-26 13:22 52.38650 5.39861 780 ft 133 kts 41°
2026-04-26 13:22 52.39271 5.41001 778 ft 134 kts 39°
2026-04-26 13:22 52.39923 5.42108 782 ft 135 kts 37°
2026-04-26 13:22 52.40599 5.43170 779 ft 135 kts 35°
2026-04-26 13:23 52.41181 5.44144 780 ft 137 kts 41°
2026-04-26 13:23 52.41787 5.45343 776 ft 135 kts 43°
2026-04-26 13:23 52.42377 5.46521 733 ft 133 kts 43°
2026-04-26 13:23 52.43004 5.47548 579 ft 119 kts 37°
2026-04-26 13:24 52.43581 5.48452 373 ft 114 kts 35°
2026-04-26 13:24 52.44103 5.49306 250 ft 97 kts 39°
2026-04-26 13:24 52.44534 5.50064 103 ft 74 kts 47°
2026-04-26 13:24 52.44836 5.50589 17 ft 50 kts 46°
2026-04-26 13:25 52.45029 5.50939 14 ft 40 kts 44°
2026-04-26 13:25 52.45114 5.51146 9 ft 8 kts 135°
2026-04-26 13:25 52.45095 5.51189 6 ft 3 kts 146°
2026-04-26 13:25 52.45083 5.51199 0 ft 1 kts 142°
2026-04-26 13:26 52.45081 5.51195 -3 ft 1 kts 141°
2026-04-26 13:26 52.45036 5.51290 9 ft 19 kts 70°
2026-04-26 13:26 52.45168 5.51563 7 ft 39 kts 49°
2026-04-26 13:26 52.45295 5.51806 7 ft 19 kts 47°
2026-04-26 13:27 52.45303 5.51910 -1 ft 2 kts 51°
2026-04-26 13:27 52.45307 5.51911 -6 ft 2 kts 57°
2026-04-26 13:27 52.45308 5.51912 -7 ft 0 kts 55°
2026-04-26 13:27 52.45308 5.51913 -7 ft 0 kts 50°
2026-04-26 13:28 52.45309 5.51916 -7 ft 0 kts 53°
2026-04-26 13:28 52.45308 5.51913 -7 ft 0 kts 50°